Tracking 19817 objects as of 19-Aug-2019
HD Live streaming from Space Station
objects crossing your sky now

KAZEOSAT 2

Track KAZEOSAT 2 now!
10-day predictions
KAZEOSAT 2 is classified as:


NORAD ID: 40010
Int'l Code: 2014-033A
Perigee: 619.3 km
Apogee: 640.6 km
Inclination: 97.8 °
Period: 97.2 minutes
Semi major axis: 7000 km
RCS: Unknown
Launch date: June 19, 2014
Source: Kazakhstan (KAZ)
Launch site: Orenburg, Russia (OREN)
aabbcc
Your satellite tracking list
Your tracking list is empty




NASA's NSSDC Master Catalog

Two Line Element Set (TLE):
1 40010U 14033A   19229.18681357  .00000015  00000-0  84641-5 0  9992
2 40010  97.8328 127.1094 0015163 215.3337 144.6893 14.82068330279107
Source of the keplerian elements: AFSPC